THOR ABLESTAR DEB, 355

Orbit data source: Space-Track

THOR ABLESTAR DEB, 355 is space debris in LEO originally from a launch on Thu, 29 Jun 1961 UTC launched from the Air Force Eastern Test Range (AFETR). Debris objects in space refer to the collection of defunct objects orbiting the Earth. Examples of debris include non-operational satellites, rocket bodies, and fragments generated from explosions, collisions, or faulty payload assembly.

Loading next visibility...
Identifier
355, 1961-015DV
Orbit
LEO
Country
Flag of USUS
Related business
Manufacturer
Unknown
Mission
Spacecraft
Bus & Motor
Unknown
Mass
Unknown
Launch date (UTC)
1961-06-29 (64 years ago)
Launch vehicle
Unknown
Launch site
Air Force Eastern Test Range (AFETR)
Object type
Payload
Rocket body
Debris
Shape & HBR
Unknown shape, 0.1 m
Radar Cross Section
Medium (>0.1 m² and <1 m²)

Expand to show TLE details & history
Last TLE update: 15 hours ago

TLE from 15 hours ago
0 THOR ABLESTAR DEB
1 00355U 61015DV  25354.51067329  .00000484  00000-0  93395-3 0  9996
2 00355  67.2268  38.0089 0243822 331.7641  94.5081 13.33942669125191
Epoch: 2025-12-20T12:15Z
TLE epoch observation values (Epoch: 2025-12-20T12:15:22.172Z)
Latitude
59.55087°
Longitude
170.10706°
Altitude
1,160.052 km
Speed
7.27 km/s
True Right ascension
05h 33m 08s
True Declination
59° 24' 30"
Sunlit
Object was in full shadow at epoch
Visualization orbit readout
Latitude
Unknown
Longitude
Unknown
Altitude
Unknown
Speed
Unknown
Apparent Right ascension
Unknown
Apparent Declination
Unknown
Sunlit
N/A
Visualization observer readout
Local Sidereal Time
02:30:13
Azimuth
Unknown
Elevation
Unknown
Doppler factor
Unknown
Orbital elements
Apogee altitude
1,313.391 km
Perigee altitude
947.245 km
Semi-major axis
7,508.455 km
Eccentricity
0.02438
Inclination
67.2268°
RAAN
38.0089°
Arg. of periapsis
331.7641°
True anomaly
97.28571°
Mean anomaly
94.5081°
Eccentric anomaly
95.8977°
Mean motion
3.33593 °/min
Orbital period
107.92 mins
BSTAR
0.00093395
Loading maneuver chart data...
Computing Atmospheric mass density...

Documentation

Showing up to 5 results
|